Regional Weather Roundup
Issued by NWS Huntsville, AL

Home | Current Version | Previous Version | Text Only | Print | Product List | Glossary On
Versions: 1 2 3 4 5 6 7 8 9 10 11 12 13 14 15 16 17 18 19 20 21 22 23 24 25 26 27
000
ASUS44 KHUN 200910
RWRHUN

WEATHER ROUNDUP FOR THE TENNESSEE VALLEY
NATIONAL WEATHER SERVICE HUNTSVILLE AL
400 AM CDT FRI APR 20 2018

ALZ001>004-201000-
NORTHWEST ALABAMA

CITY           SKY/WX    TMP DP  RH WIND       PRES   REMARKS
SHOALS AIRPORT FAIR      43  32  65 NE8       30.33S
$$

ALZ005>007-016-201000-
NORTH CENTRAL ALABAMA

CITY           SKY/WX    TMP DP  RH WIND       PRES   REMARKS
DECATUR AP     FAIR      36  32  85 N5        30.31R WCI  32
HUNTSVILLE AP  FAIR      40  33  76 NE8       30.30R WCI  34
MERIDIANVILLE  CLEAR     38  31  75 NE3       30.30S
REDSTONE ARSN  FAIR      41  31  67 E7        30.29R
VINEMONT AP    FAIR      37  30  78 N3        30.29R
$$

ALZ008>010-201000-
NORTHEAST ALABAMA

CITY           SKY/WX    TMP DP  RH WIND       PRES   REMARKS
ALBERTVILLE    FAIR      39  34  81 NE9       30.26R WCI  33
FORT PAYNE     FAIR      41  28  60 NE9       30.25S
SCOTTSBORO AP  FAIR      41  32  70 N7        30.30R
$$

TNZ076-096-097-201000-
SOUTHEASTERN MIDDLE TENNESSEE

CITY           SKY/WX    TMP DP  RH WIND       PRES   REMARKS
TULLAHOMA      CLEAR     37  30  75 NE6       30.31S WCI  33
WINCHESTER     CLEAR     39  28  65 N7        30.30S WCI  34
$$

...SURROUNDING SITES...

CITY           SKY/WX    TMP DP  RH WIND       PRES   REMARKS
ATLANTA        FAIR      45  33  63 N8        30.22R
ANNISTON       FAIR      43  31  62 NE6       30.25R
BIRMINGHAM     FAIR      42  33  70 N7        30.28R
CHATTANOOGA    FAIR      42  31  64 N14       30.31S
CORINTH        FAIR      37  34  87 CALM      30.34R
DALTON         FAIR      41  32  70 N13       30.28S
GADSDEN        FAIR      40  33  76 N6        30.28R
GOLDEN TRNGL   FAIR      40  35  83 N6        30.29F
HALEYVILLE     FAIR      40  33  76 N7        30.31R
JACKSON TN     FAIR      36  34  92 CALM      30.36S
MEMPHIS        FAIR      41  34  76 N6        30.37R
NASHVILLE      FAIR      38  32  79 CALM      30.36S
OXFORD MS      FAIR      36  32  87 CALM      30.35S
ROME           FAIR      43  31  62 N7        30.26R
SAVANNAH       CLEAR     34  34 100 CALM      30.34R
SELMER         CLEAR     34  32  93 N6        30.34R WCI  29
TUPELO         FAIR      38  32  79 N9        30.32S WCI  31
TUSCALOOSA     FAIR      43  37  79 N7        30.28R
$$

...GULF COAST WEATHER...

CITY           SKY/WX    TMP DP  RH WIND       PRES   REMARKS
GULFPORT       FAIR      52  40  63 N8        30.20R
PASCAGOULA     FAIR      49  39  68 N6        30.20R
MOBILE         FAIR      50  38  63 N9        30.20R
GULF SHORES    FAIR      51  39  63 NE7       30.18R
PENSACOLA      FAIR      53  39  59 N9        30.16
DESTIN         FAIR      57  40  52 N9G20     30.16R
PANAMA CITY    FAIR      57  43  59 NE12      30.13R
APPALACHICOLA  MOCLDY    60  47  61 NE10      30.11R
$$





USA.gov is the U.S. government's official web portal to all federal, state and local government web resources and services.